Time,TemperatureF,DewpointF,PressureIn,WindDirection,WindDirectionDegrees,WindSpeedMPH,WindSpeedGustMPH,Humidity,HourlyPrecipIn,Conditions,Clouds,dailyrainin,SoftwareType,DateUTC
2013-03-05 07:30:00,50.7,43.1,30.20,SE,130,2.0,4.0,75,0.00,CLR,,0.00,WeatherDisplay:10.37,2013-03-05 06:30:00,
2013-03-05 07:40:00,51.3,42.9,30.20,East,85,2.0,5.0,73,0.00,CLR,,0.00,WeatherDisplay:10.37,2013-03-05 06:40:00,
2013-03-05 07:50:00,51.4,42.7,30.20,ENE,72,1.0,4.0,72,0.00,CLR,,0.00,WeatherDisplay:10.37,2013-03-05 06:50:00,
2013-03-05 08:00:00,51.7,42.2,30.20,NE,52,2.0,3.0,70,0.00,CLR,,0.00,WeatherDisplay:10.37,2013-03-05 07:00:00,
2013-03-05 08:10:00,52.3,41.7,30.21,ESE,102,2.0,5.0,67,0.00,CLR,,0.00,WeatherDisplay:10.37,2013-03-05 07:10:00,
2013-03-05 08:20:00,52.8,41.0,30.21,East,94,3.0,5.0,64,0.00,CLR,,0.00,WeatherDisplay:10.37,2013-03-05 07:20:00,
2013-03-05 08:30:00,53.6,41.7,30.21,ESE,107,2.0,5.0,64,0.00,CLR,,0.00,WeatherDisplay:10.37,2013-03-05 07:30:00,
2013-03-05 08:40:00,54.2,40.6,30.21,ESE,106,1.0,4.0,60,0.00,CLR,,0.00,WeatherDisplay:10.37,2013-03-05 07:40:00,
2013-03-05 08:50:00,54.3,40.3,30.22,SE,124,1.0,4.0,59,0.00,CLR,,0.00,WeatherDisplay:10.37,2013-03-05 07:50:00,
2013-03-05 09:00:00,54.6,40.2,30.22,East,98,0.0,4.0,58,0.00,CLR,,0.00,WeatherDisplay:10.37,2013-03-05 08:00:00,
2013-03-05 09:10:00,55.2,39.8,30.22,ESE,123,2.0,3.0,56,0.00,CLR,,0.00,WeatherDisplay:10.37,2013-03-05 08:10:00,
2013-03-05 09:20:00,55.4,39.5,30.23,SE,132,1.0,4.0,55,0.00,CLR,,0.00,WeatherDisplay:10.37,2013-03-05 08:20:00,
2013-03-05 09:30:00,55.0,39.6,30.22,ESE,118,1.0,4.0,56,0.00,CLR,,0.00,WeatherDisplay:10.37,2013-03-05 08:30:00,
2013-03-05 09:40:00,55.3,38.9,30.23,SSE,159,1.0,4.0,54,0.00,CLR,,0.00,WeatherDisplay:10.37,2013-03-05 08:40:00,
2013-03-05 09:50:00,55.3,39.9,30.23,ESE,113,2.0,3.0,56,0.00,CLR,,0.00,WeatherDisplay:10.37,2013-03-05 08:50:00,
2013-03-05 10:00:00,55.4,38.5,30.23,ESE,120,1.0,4.0,53,0.00,CLR,,0.00,WeatherDisplay:10.37,2013-03-05 09:00:00,
2013-03-05 10:10:00,56.9,38.4,30.23,East,94,0.0,1.0,50,0.00,CLR,,0.00,WeatherDisplay:10.37,2013-03-05 09:10:00,
2013-03-05 10:20:00,57.8,38.8,30.22,SSE,166,0.0,3.0,49,0.00,CLR,,0.00,WeatherDisplay:10.37,2013-03-05 09:20:00,
2013-03-05 10:30:00,57.6,39.1,30.22,ESE,117,1.0,5.0,50,0.00,CLR,,0.00,WeatherDisplay:10.37,2013-03-05 09:30:00,
2013-03-05 10:40:00,57.6,38.0,30.21,SSE,165,2.0,6.0,48,0.00,CLR,,0.00,WeatherDisplay:10.37,2013-03-05 09:40:00,
2013-03-05 10:50:00,57.2,37.6,30.21,SE,130,1.0,5.0,48,0.00,CLR,,0.00,WeatherDisplay:10.37,2013-03-05 09:50:00,
2013-03-05 11:00:00,57.2,37.2,30.21,SE,124,2.0,4.0,47,0.00,CLR,,0.00,WeatherDisplay:10.37,2013-03-05 10:00:00,
2013-03-05 11:10:00,58.4,38.8,30.21,South,179,1.0,4.0,48,0.00,CLR,,0.00,WeatherDisplay:10.37,2013-03-05 10:10:00,
2013-03-05 11:20:00,59.8,39.0,30.21,WSW,243,0.0,3.0,46,0.00,CLR,,0.00,WeatherDisplay:10.37,2013-03-05 10:20:00,
2013-03-05 11:30:00,60.2,38.2,30.21,WSW,239,0.0,4.0,44,0.00,CLR,,0.00,WeatherDisplay:10.37,2013-03-05 10:30:00,
2013-03-05 11:40:00,60.4,37.8,30.21,WNW,285,2.0,4.0,43,0.00,CLR,,0.00,WeatherDisplay:10.37,2013-03-05 10:40:00,
2013-03-05 11:50:00,60.1,38.7,30.21,SW,223,2.0,4.0,45,0.00,CLR,,0.00,WeatherDisplay:10.37,2013-03-05 10:50:00,
2013-03-05 12:00:00,60.4,39.5,30.21,West,268,1.0,5.0,46,0.00,CLR,,0.00,WeatherDisplay:10.37,2013-03-05 11:00:00,
2013-03-05 12:10:00,60.2,40.4,30.21,SW,235,3.0,7.0,48,0.00,CLR,,0.00,WeatherDisplay:10.37,2013-03-05 11:10:00,
2013-03-05 12:20:00,59.6,39.8,30.21,WSW,246,6.0,10.0,48,0.00,CLR,,0.00,WeatherDisplay:10.37,2013-03-05 11:20:00,
2013-03-05 12:30:00,58.8,41.2,30.20,SW,229,0.0,10.0,52,0.00,CLR,,0.00,WeatherDisplay:10.37,2013-03-05 11:30:00,
2013-03-05 12:40:00,59.5,41.9,30.21,South,179,3.0,6.0,52,0.00,CLR,,0.00,WeatherDisplay:10.37,2013-03-05 11:40:00,
2013-03-05 12:50:00,59.0,42.4,30.20,SW,215,2.0,7.0,54,0.00,CLR,,0.00,WeatherDisplay:10.37,2013-03-05 11:50:00,
2013-03-05 13:00:00,58.2,43.0,30.20,SSW,203,1.0,9.0,57,0.00,CLR,,0.00,WeatherDisplay:10.37,2013-03-05 12:00:00,
2013-03-05 13:10:00,57.4,44.5,30.20,SSW,205,2.0,9.0,62,0.00,CLR,,0.00,WeatherDisplay:10.37,2013-03-05 12:10:00,
2013-03-05 13:20:00,57.6,45.9,30.20,SSW,202,5.0,10.0,65,0.00,CLR,,0.00,WeatherDisplay:10.37,2013-03-05 12:20:00,
2013-03-05 13:30:00,56.9,45.6,30.19,South,179,6.0,12.0,66,0.00,CLR,,0.00,WeatherDisplay:10.37,2013-03-05 12:30:00,
2013-03-05 13:40:00,56.7,45.1,30.18,SSE,150,2.0,9.0,65,0.00,CLR,,0.00,WeatherDisplay:10.37,2013-03-05 12:40:00,
2013-03-05 13:50:00,56.5,42.4,30.18,South,176,7.0,10.0,59,0.00,CLR,,0.00,WeatherDisplay:10.37,2013-03-05 12:50:00,
2013-03-05 14:00:00,56.6,42.0,30.18,SE,137,3.0,5.0,58,0.00,CLR,,0.00,WeatherDisplay:10.37,2013-03-05 13:00:00,
2013-03-05 14:10:00,56.3,44.7,30.18,ESE,121,2.0,5.0,65,0.00,CLR,,0.00,WeatherDisplay:10.37,2013-03-05 13:10:00,
2013-03-05 14:20:00,56.2,46.2,30.17,SSE,157,3.0,7.0,69,0.00,CLR,,0.00,WeatherDisplay:10.37,2013-03-05 13:20:00,
2013-03-05 14:30:00,56.3,45.5,30.17,SSE,147,2.0,6.0,67,0.00,CLR,,0.00,WeatherDisplay:10.37,2013-03-05 13:30:00,
2013-03-05 14:40:00,56.1,46.1,30.17,SSE,158,5.0,8.0,69,0.00,CLR,,0.00,WeatherDisplay:10.37,2013-03-05 13:40:00,
2013-03-05 14:50:00,56.0,47.1,30.17,SSE,149,2.0,8.0,72,0.00,CLR,,0.00,WeatherDisplay:10.37,2013-03-05 13:50:00,
2013-03-05 15:00:00,56.1,43.3,30.16,SSE,164,5.0,7.0,62,0.00,CLR,,0.00,WeatherDisplay:10.37,2013-03-05 14:00:00,
2013-03-05 15:10:00,56.4,43.5,30.16,SSE,155,1.0,6.0,62,0.00,CLR,,0.00,WeatherDisplay:10.37,2013-03-05 14:10:00,
2013-03-05 15:20:00,56.4,42.2,30.15,ESE,117,3.0,7.0,59,0.00,CLR,,0.00,WeatherDisplay:10.37,2013-03-05 14:20:00,
2013-03-05 15:30:00,56.2,41.6,30.14,ESE,118,6.0,10.0,58,0.00,CLR,,0.00,WeatherDisplay:10.37,2013-03-05 14:30:00,
2013-03-05 15:40:00,56.4,42.2,30.13,East,97,5.0,10.0,59,0.00,CLR,,0.00,WeatherDisplay:10.37,2013-03-05 14:40:00,
2013-03-05 15:50:00,56.3,43.5,30.13,ESE,114,1.0,10.0,62,0.00,CLR,,0.00,WeatherDisplay:10.37,2013-03-05 14:50:00,
2013-03-05 16:00:00,56.3,44.7,30.14,SE,142,2.0,7.0,65,0.00,CLR,,0.00,WeatherDisplay:10.37,2013-03-05 15:00:00,
2013-03-05 16:10:00,56.1,44.9,30.14,SE,146,2.0,5.0,66,0.00,CLR,,0.00,WeatherDisplay:10.37,2013-03-05 15:10:00,
2013-03-05 16:20:00,56.2,43.3,30.13,SSE,152,0.0,4.0,62,0.00,CLR,,0.00,WeatherDisplay:10.37,2013-03-05 15:20:00,
2013-03-05 16:30:00,56.6,42.4,30.13,South,172,6.0,9.0,59,0.00,CLR,,0.00,WeatherDisplay:10.37,2013-03-05 15:30:00,
2013-03-05 16:40:00,56.7,39.7,30.14,SSE,162,7.0,16.0,53,0.00,CLR,,0.00,WeatherDisplay:10.37,2013-03-05 15:40:00,
2013-03-05 16:50:00,56.9,38.4,30.14,South,171,9.0,14.0,50,0.00,CLR,,0.00,WeatherDisplay:10.37,2013-03-05 15:50:00,
2013-03-05 17:00:00,57.1,36.5,30.13,SSE,165,10.0,16.0,46,0.00,CLR,,0.00,WeatherDisplay:10.37,2013-03-05 16:00:00,
2013-03-05 17:10:00,56.9,38.5,30.13,SSE,163,12.0,21.0,50,0.00,CLR,,0.00,WeatherDisplay:10.37,2013-03-05 16:10:00,
2013-03-05 17:20:00,56.6,39.7,30.13,South,170,9.0,17.0,53,0.00,CLR,,0.00,WeatherDisplay:10.37,2013-03-05 16:20:00,
2013-03-05 17:30:00,56.3,41.2,30.13,SSE,160,5.0,15.0,57,0.00,CLR,,0.00,WeatherDisplay:10.37,2013-03-05 16:30:00,
2013-03-05 17:40:00,56.1,42.4,30.13,SSE,150,5.0,14.0,60,0.00,CLR,,0.00,WeatherDisplay:10.37,2013-03-05 16:40:00,
2013-03-05 17:50:00,56.0,42.7,30.12,SE,128,6.0,10.0,61,0.00,CLR,,0.00,WeatherDisplay:10.37,2013-03-05 16:50:00,
2013-03-05 18:00:00,56.1,40.6,30.11,SSE,154,6.0,13.0,56,0.00,CLR,,0.00,WeatherDisplay:10.37,2013-03-05 17:00:00,
2013-03-05 18:10:00,56.2,40.7,30.11,SE,146,3.0,9.0,56,0.00,CLR,,0.00,WeatherDisplay:10.37,2013-03-05 17:10:00,
2013-03-05 18:20:00,56.4,40.9,30.11,SSE,164,5.0,12.0,56,0.00,CLR,,0.00,WeatherDisplay:10.37,2013-03-05 17:20:00,
2013-03-05 18:30:00,56.6,39.7,30.12,SE,134,0.0,5.0,53,0.00,CLR,,0.00,WeatherDisplay:10.37,2013-03-05 17:30:00,
2013-03-05 18:40:00,57.5,35.8,30.12,East,95,2.0,8.0,44,0.00,CLR,,0.00,WeatherDisplay:10.37,2013-03-05 17:40:00,
2013-03-05 18:50:00,57.1,37.6,30.12,East,95,1.0,5.0,48,0.00,CLR,,0.00,WeatherDisplay:10.37,2013-03-05 17:50:00,
2013-03-05 19:00:00,56.5,39.5,30.12,East,84,2.0,6.0,53,0.00,CLR,,0.00,WeatherDisplay:10.37,2013-03-05 18:00:00,
2013-03-05 19:10:00,56.2,38.8,30.11,NE,47,6.0,9.0,52,0.00,CLR,,0.00,WeatherDisplay:10.37,2013-03-05 18:10:00,
2013-03-05 19:20:00,55.7,39.8,30.10,NE,49,7.0,12.0,55,0.00,CLR,,0.00,WeatherDisplay:10.37,2013-03-05 18:20:00,
2013-03-05 19:30:00,55.6,40.1,30.08,NE,41,10.0,15.0,56,0.00,CLR,,0.00,WeatherDisplay:10.37,2013-03-05 18:30:00,
2013-03-05 19:40:00,55.4,40.9,30.07,NE,39,12.0,17.0,58,0.00,CLR,,0.00,WeatherDisplay:10.37,2013-03-05 18:40:00,
2013-03-05 19:50:00,55.3,41.6,30.07,ENE,57,7.0,15.0,60,0.00,CLR,,0.00,WeatherDisplay:10.37,2013-03-05 18:50:00,
2013-03-05 20:00:00,55.5,41.4,30.08,NE,38,6.0,14.0,59,0.00,CLR,,0.00,WeatherDisplay:10.37,2013-03-05 19:00:00,
2013-03-05 20:10:00,55.6,41.5,30.08,NE,36,0.0,12.0,59,0.00,CLR,,0.00,WeatherDisplay:10.37,2013-03-05 19:10:00,
2013-03-05 20:20:00,55.6,41.9,30.09,WSW,255,0.0,3.0,60,0.00,CLR,,0.00,WeatherDisplay:10.37,2013-03-05 19:20:00,
2013-03-05 20:30:00,55.6,39.7,30.08,NW,305,0.0,2.0,55,0.00,CLR,,0.00,WeatherDisplay:10.37,2013-03-05 19:30:00,
2013-03-05 20:40:00,55.8,40.8,30.08,SW,224,1.0,3.0,57,0.00,CLR,,0.00,WeatherDisplay:10.37,2013-03-05 19:40:00,
2013-03-05 20:50:00,55.7,41.6,30.09,SSW,210,2.0,4.0,59,0.00,CLR,,0.00,WeatherDisplay:10.37,2013-03-05 19:50:00,
2013-03-05 21:00:00,55.3,41.2,30.08,WSW,254,2.0,4.0,59,0.00,CLR,,0.00,WeatherDisplay:10.37,2013-03-05 20:00:00,
2013-03-05 21:10:00,55.6,40.6,30.08,West,272,1.0,3.0,57,0.00,CLR,,0.00,WeatherDisplay:10.37,2013-03-05 20:10:00,
2013-03-05 21:20:00,55.3,42.5,30.08,NW,309,1.0,3.0,62,0.00,CLR,,0.00,WeatherDisplay:10.37,2013-03-05 20:20:00,
2013-03-05 21:30:00,55.1,41.4,30.08,WNW,295,1.0,3.0,60,0.00,CLR,,0.00,WeatherDisplay:10.37,2013-03-05 20:30:00,
2013-03-05 21:40:00,55.1,41.0,30.08,NNW,334,2.0,3.0,59,0.00,CLR,,0.00,WeatherDisplay:10.37,2013-03-05 20:40:00,
2013-03-05 21:50:00,55.1,40.1,30.08,NNW,337,1.0,3.0,57,0.00,CLR,,0.00,WeatherDisplay:10.37,2013-03-05 20:50:00,
2013-03-05 22:00:00,55.5,40.0,30.09,NW,326,1.0,3.0,56,0.00,CLR,,0.00,WeatherDisplay:10.37,2013-03-05 21:00:00,
2013-03-05 22:20:00,55.7,41.1,30.09,NW,314,0.0,3.0,58,0.00,CLR,,0.00,WeatherDisplay:10.37,2013-03-05 21:20:00,
2013-03-05 22:30:00,55.7,41.1,30.09,NW,307,2.0,3.0,58,0.00,CLR,,0.00,WeatherDisplay:10.37,2013-03-05 21:30:00,
2013-03-05 22:40:00,55.1,41.5,30.09,NNW,337,2.0,4.0,60,0.00,CLR,,0.00,WeatherDisplay:10.37,2013-03-05 21:40:00,
2013-03-05 22:50:00,55.4,41.7,30.10,WNW,301,2.0,5.0,60,0.00,CLR,,0.00,WeatherDisplay:10.37,2013-03-05 21:50:00,
2013-03-05 23:00:00,54.9,42.2,30.10,North,353,2.0,5.0,62,0.00,CLR,,0.00,WeatherDisplay:10.37,2013-03-05 22:00:00,
2013-03-05 23:10:00,54.9,42.5,30.09,NW,309,1.0,4.0,63,0.00,CLR,,0.00,WeatherDisplay:10.37,2013-03-05 22:10:00,